Location: Wells
(51.2093°N, 2.6446°W)
Time: 06:33:59
(UTC+01:00)

PCSat - Pass Details

Date: 14 March 2026
Orbit: 780 x 790 km, 67.1° (Epoch: 13 April)

Event Time Altitude Azimuth Distance (km) Brightness Sun altitude
Exits shadow 02:43:36 14° 331° (NNW) 2,081 11.9 -32.8°
Maximum altitude 02:45:09 16° 350° (N) 1,989 12.0 -32.6°
Drops below altitude 10° 02:48:24 10° 27° (NNE) 2,365 12.8 -32.3°
Sets 02:51:51 0° 50° (NE) 3,296 13.9 -31.9°
